カタログに戻る

FENGYUN 1C DEB

運用中SSO
NORAD 30356·DEBRIS·🇨🇳 China

打ち上げ May 10, 1999 から Taiyuan Satellite Launch Center

Loading…

次のパス (今後24時間)

TLE

最新Source: Space-Track

元期: Sep 13, 2026, 23:16 UTC

1 30356U 99025ABT 26256.96985354  .00000656  00000-0  36568-3 0  9990
2 30356  98.6973 249.3411 0051642 223.2001 155.6112 14.13672743  8921

AllMySatでFENGYUN 1C DEBをリアルタイム追跡

Download on the App Store